Location: Corralito
(10.2667°N, 66.9500°W)
Time: 23:19:38
(UTC+00:00)

Cosmos 1190 Rocket - Pass Details

Date: 10 December 2023
Orbit: 756 x 777 km, 74.1° (Epoch: 26 February)

Event Time Altitude Azimuth Distance (km) Brightness Sun altitude
Rises 23:05:20 0° 338° (NNW) 3,234 7.3 -14.2°
Reaches altitude 10° 23:07:46 10° 333° (NNW) 2,305 6.6 -14.7°
Maximum altitude 23:12:48 49° 259° (WSW) 982 5.0 -15.9°
Drops below altitude 10° 23:17:48 10° 184° (S) 2,292 6.8 -17.0°
Sets 23:20:14 0° 179° (S) 3,214 7.5 -17.6°
